Hourly Data Report for May 16, 2022

DRYDEN REGIONAL
ONTARIO
Current Station Operator: NAVCAN

49°49'39.000" N
92°44'39.000" W
412.70 m
6032125
71527
YHD

Download Data

Hourly Data (May 2022)
Hourly Data Report for May 16, 2022
TIME
LST
Temp Definition
°C
Dew Point Definition
°C
Rel Hum Definition
%
Precip. Amount Definition
mm

Wind Dir Definition
10's deg

Wind Spd Definition
km/h
Visibility Definition
km
Stn Press Definition
kPa
Hmdx Definition


Wind Chill Definition


Weather Definition


00:00 4.4 1.9 84 0.0 30 15 16.1 96.02     Rain
01:00 3.6 1.9 88 0.0 31 15 9.7 96.02     Rain, Fog
02:00 3.0 1.8 92 0.0 30 11 16.1 96.06     LegendNANA
03:00 3.0 1.5 90 0.0 30 11 16.1 96.09     LegendNANA
04:00 3.0 1.3 89 0.0 30 11 16.1 96.14     LegendNANA
05:00 2.7 1.5 92 0.0 29 11 6.4 96.19     Fog
06:00 2.8 2.2 96 0.0 29 11 3.2 96.25     Fog
07:00 3.3 2.3 93 0.0 29 17 4.8 96.29     Fog
08:00 4.4 1.3 80 0.0 31 13 16.1 96.34     LegendNANA
09:00 6.0 1.9 75 0.0 28 17 16.1 96.35     LegendNANA
10:00 6.4 1.8 73 0.0 29 18 16.1 96.39     LegendNANA
11:00 7.2 1.5 67 0.0 33 17 16.1 96.45     LegendNANA
12:00 8.3 1.6 63 0.0 33 15 16.1 96.47     LegendNANA
13:00 8.3 1.7 63 0.0 35 17 16.1 96.54     LegendNANA
14:00 8.7 1.4 60 0.0 33 15 16.1 96.56     LegendNANA
15:00 9.8 1.3 55 0.0 LegendMM 15 16.1 96.60     LegendNANA
16:00 10.4 1.2 53 0.0 1 13 16.1 96.60     LegendNANA
17:00 9.3 1.0 56 0.0 1 13 16.1 96.63     LegendNANA
18:00 9.0 1.4 59 0.0 1 13 16.1 96.67     LegendNANA
19:00 8.7 1.4 60 0.0 1 9 16.1 96.68     LegendNANA
20:00 7.4 0.9 63 0.0 3 8 16.1 96.70     LegendNANA
21:00 6.3 1.0 69 0.0 7 5 16.1 96.75     LegendNANA
22:00 5.4 2.2 80 0.0 7 4 16.1 96.77     LegendNANA
23:00 4.0 2.7 91 0.0 7 4 16.1 96.78     LegendNANA

Notes on Data Quality.

Legend

  • E = Estimated
  • M = Missing
  • NA = Not Available*
  • [empty] = Indicates an unobserved value
Date modified: